Theta_e
309 308 307 306 306 306 306 306 306 306 305 305 305 305 305 305 305 305 305 304 304 304 303 303 305 307 310 311 312 313 316 318 319 319 320 321 324 324 324 325 326 326
310 308 306 306 306 306 306 306 305 306 305 305 305 305 305 304 305 305 304 304 304 303 303 303 303 304 307 309 310 311 314 316 318 318 319 319 321 323 324 324 325 325
310 308 306 306 305 305 305 305 306 305 305 305 305 304 304 304 304 304 303 304 303 302 303 304 304 305 304 307 310 312 313 314 316 318 319 319 319 321 322 323 324 324
309 307 306 306 306 305 305 305 305 305 305 305 304 304 304 304 305 304 304 305 304 304 305 306 306 307 307 306 308 311 312 313 315 317 319 320 320 320 320 321 322 324
308 307 306 306 305 305 305 305 305 305 305 304 304 304 305 306 308 306 305 306 306 305 306 307 307 307 307 307 308 309 311 312 313 316 318 319 320 321 321 320 320 321
308 307 306 306 306 306 305 305 305 305 304 304 305 306 306 307 307 306 306 306 306 306 306 306 306 306 306 307 307 308 310 311 312 314 316 318 319 320 321 321 320 320
308 306 306 306 306 306 306 305 305 305 304 305 306 307 307 306 306 305 306 306 306 305 306 305 305 306 306 306 307 307 309 310 312 313 314 317 318 320 320 321 321 321
307 306 306 306 306 306 305 305 305 304 305 306 307 307 306 306 305 305 305 305 305 305 305 305 305 305 305 306 306 306 307 309 310 312 313 315 317 319 319 320 321 321
307 307 306 306 306 305 305 305 305 305 306 307 306 306 306 306 305 305 305 304 304 304 304 305 305 305 305 305 305 306 306 307 309 310 312 313 315 317 319 319 320 321
307 307 306 306 305 305 305 305 305 306 307 307 306 306 306 305 305 305 305 304 304 304 304 304 304 305 304 304 305 305 306 306 307 309 311 312 313 315 317 318 319 320
308 307 306 306 305 304 304 305 306 306 306 306 306 306 305 305 305 304 304 304 304 304 304 304 304 304 304 304 304 305 305 306 306 307 309 311 313 314 315 316 318 319
308 307 306 305 304 305 305 305 305 305 306 306 305 305 305 305 304 304 305 304 304 304 304 304 304 304 304 304 304 304 305 305 306 306 308 309 312 314 315 315 316 317
309 307 306 304 304 304 304 305 305 305 305 305 305 305 304 304 304 304 305 304 304 304 304 304 304 304 303 303 303 304 304 304 305 306 307 308 310 312 314 315 316 316
307 306 305 304 304 304 304 305 305 305 305 304 304 304 304 304 304 304 304 304 304 304 304 304 303 303 303 303 303 303 303 304 304 305 305 306 308 310 311 314 315 316
307 306 305 305 305 305 305 305 305 304 304 303 303 303 303 304 304 304 304 303 303 303 303 303 303 303 303 303 303 303 303 304 304 304 304 305 305 307 309 311 313 314
307 307 306 306 306 305 305 305 304 303 303 303 303 303 303 303 303 303 303 303 303 303 303 303 303 303 303 303 303 303 303 303 303 304 304 304 304 305 307 309 311 313
307 306 306 306 306 305 304 304 303 303 303 303 303 302 302 303 302 303 302 303 303 303 303 302 302 302 302 302 303 302 302 302 302 302 303 303 304 305 306 307 308 310
306 306 306 306 305 305 304 303 303 302 302 302 302 302 301 301 301 301 301 302 302 302 302 302 302 302 301 301 301 301 301 300 300 301 301 302 302 304 305 306 307 309
306 306 305 305 304 304 303 303 302 302 301 301 301 301 300 300 300 300 300 300 300 300 301 301 301 301 301 300 300 300 300 299 299 299 299 300 300 302 303 305 307 308
305 305 305 304 304 303 302 302 301 301 301 301 300 300 300 300 300 299 299 299 299 299 299 299 299 300 300 300 299 299 299 299 299 299 299 299 299 300 301 303 305 307
305 305 304 304 303 302 302 302 301 301 301 300 300 299 299 299 299 299 299 298 298 298 298 298 298 299 299 299 299 298 298 298 298 298 298 298 299 299 300 301 302 305
305 304 304 303 303 302 302 301 301 301 300 300 299 299 299 299 299 299 298 298 298 298 298 298 298 298 298 298 298 298 298 298 298 298 298 298 298 298 299 300 301 302
304 304 303 303 302 302 301 301 301 300 299 299 299 299 299 299 298 298 298 298 298 298 298 297 297 297 297 297 297 297 297 297 297 297 298 298 298 298 299 299 300 301
303 303 303 302 302 301 301 301 300 300 299 299 299 299 298 298 298 298 298 297 297 297 297 297 297 297 296 296 296 296 296 297 297 297 297 297 298 298 299 299 299 300
303 303 302 302 301 301 301 300 300 299 299 298 298 298 298 297 297 297 297 297 296 296 296 296 296 296 296 296 296 295 295 296 296 297 297 297 298 298 299 299 299 300
303 302 302 301 301 301 300 300 299 298 298 298 298 297 297 297 297 296 296 296 296 295 295 295 295 295 295 295 296 296 296 296 296 296 297 297 297 298 299 299 300 300
Wind_Speed
17 16 15 14 13 13 12 11 12 12 13 14 15 16 19 20 22 23 25 26 27 27 25 23 21 20 20 22 24 23 21 21 22 24 27 29 30 32 34 35 34 35
18 17 16 15 14 14 14 13 14 14 14 16 17 18 20 22 24 26 28 29 30 31 29 26 24 22 22 22 24 26 24 22 22 23 26 29 31 32 33 34 35 37
19 18 17 16 16 15 15 15 15 16 17 18 20 21 21 23 25 26 28 28 29 31 29 25 22 21 22 23 23 25 26 24 22 21 22 26 30 32 33 34 33 34
20 19 18 17 17 17 16 17 17 18 19 21 21 22 23 23 23 25 26 24 25 26 23 19 18 18 20 22 22 23 27 28 25 22 22 24 26 29 33 35 33 33
21 20 19 18 18 18 18 18 19 20 21 22 23 24 23 19 16 20 23 20 20 20 17 15 16 17 19 20 21 23 25 28 28 25 23 24 24 25 29 33 35 35
21 20 19 19 19 19 19 20 21 22 23 24 23 22 20 17 16 19 20 19 18 18 17 17 16 17 18 20 21 22 23 26 28 27 25 25 25 25 26 30 33 36
22 21 20 20 20 20 21 21 22 23 23 20 18 17 17 17 19 19 18 19 19 19 18 18 17 18 18 18 21 23 23 24 26 27 27 26 26 25 26 28 30 33
22 21 20 20 19 20 21 21 22 22 20 16 16 16 17 17 18 19 19 19 19 19 18 18 18 19 18 19 21 23 24 25 25 26 28 28 27 26 26 28 29 31
22 21 20 19 19 20 21 21 21 20 18 16 17 17 18 19 19 20 20 20 20 19 18 18 18 18 18 20 22 22 23 25 26 27 29 31 31 29 28 28 30 32
20 19 18 19 19 20 21 21 20 19 18 17 18 18 19 20 20 20 21 21 20 20 19 19 19 19 19 21 22 21 21 24 27 29 31 34 35 35 33 30 29 31
18 17 17 18 19 20 20 20 20 20 19 18 18 19 20 21 20 20 20 20 20 20 20 20 20 20 21 21 21 21 22 24 27 29 31 34 36 39 39 37 33 31
15 16 17 18 19 19 20 21 20 20 19 18 18 19 20 21 21 21 22 23 22 21 21 22 21 21 21 22 22 22 23 26 26 28 31 33 35 38 40 42 41 38
13 14 16 18 19 19 21 21 20 19 18 17 18 20 20 21 22 22 22 23 22 22 23 23 22 22 22 22 22 22 23 25 26 27 30 33 35 37 39 41 44 45
13 14 16 18 19 19 19 18 17 17 17 17 18 20 20 21 21 21 21 21 21 22 22 22 21 22 22 22 22 22 22 24 25 26 30 34 36 37 38 40 42 46
13 14 15 16 15 15 15 15 16 17 17 18 19 20 20 20 21 21 21 22 22 23 22 21 22 22 22 23 24 23 22 22 23 24 28 32 35 36 37 39 41 43
10 11 12 12 12 12 13 15 16 17 18 18 19 20 20 21 21 22 22 23 24 25 24 22 22 23 25 29 30 29 27 25 23 24 26 29 32 35 36 38 40 42
9 10 10 10 11 12 14 15 16 17 18 18 20 21 21 22 22 22 23 23 23 24 24 23 23 25 28 33 35 35 34 32 29 29 30 31 32 34 35 37 39 41
9 9 9 10 11 14 16 16 16 18 18 19 21 21 21 22 23 23 24 24 23 25 25 25 25 27 30 34 36 37 37 36 34 32 32 34 34 34 35 36 37 39
8 8 9 10 11 14 16 16 16 18 19 21 22 22 21 22 22 23 23 23 24 26 26 27 27 28 30 34 36 37 37 38 38 35 33 36 37 37 36 36 36 37
8 9 10 11 12 14 16 16 18 19 21 23 24 23 22 22 23 23 23 23 23 25 25 27 28 28 29 32 35 37 38 39 41 40 37 37 39 40 39 38 37 37
8 9 10 12 12 14 16 18 19 21 22 24 24 23 22 23 23 23 23 22 23 24 25 27 28 28 30 32 34 36 37 38 41 43 40 38 39 41 41 40 39 38
8 9 11 12 13 15 17 19 21 22 23 23 22 21 22 23 23 23 23 23 23 25 27 28 29 29 31 33 34 35 36 37 40 42 41 40 40 41 41 42 41 40
8 10 11 12 14 15 18 20 22 23 24 23 22 22 23 24 23 23 23 24 25 25 27 29 29 29 31 34 35 35 37 39 40 40 40 41 41 41 41 42 43 42
8 10 12 13 14 16 19 21 23 24 24 22 21 23 24 23 23 23 24 25 25 25 27 29 31 30 31 35 37 37 38 41 42 42 42 41 41 41 41 42 43 44
8 10 12 13 14 16 18 20 22 23 23 22 21 22 23 22 22 24 25 25 26 27 28 30 32 32 32 35 37 37 37 39 41 42 43 43 41 40 40 41 42 43
8 10 12 13 14 16 17 19 20 21 22 22 21 21 22 22 22 24 26 27 26 26 27 29 32 33 35 36 37 36 36 38 40 42 43 43 42 41 40 40 41 40
Wind_Direction
250 254 260 265 269 273 277 280 284 289 295 297 301 303 305 306 306 306 306 306 304 302 299 291 281 274 269 262 257 254 249 245 246 249 245 241 242 246 246 243 241 241
249 253 257 262 266 270 274 277 282 288 291 294 298 299 300 302 303 305 305 304 303 300 297 289 278 271 268 266 263 260 255 248 244 246 249 245 242 245 248 248 245 243
249 252 254 259 264 267 272 277 281 286 290 294 296 296 297 298 299 302 302 299 298 295 290 283 274 268 264 262 261 258 257 254 247 245 250 251 248 246 247 249 249 246
248 251 254 257 262 266 272 278 283 288 292 295 296 294 293 293 294 298 297 293 292 290 284 275 270 268 263 260 258 256 255 254 251 247 244 246 249 250 248 247 247 248
247 250 255 258 262 268 274 280 287 292 294 295 294 292 290 287 287 292 291 285 283 284 278 271 269 268 266 264 261 258 256 254 252 250 246 243 243 246 249 248 246 246
248 251 254 260 266 271 278 284 290 293 296 298 297 293 289 284 280 283 283 278 276 276 274 273 271 268 268 269 265 261 258 255 252 249 249 250 246 244 247 249 248 246
246 251 255 262 270 276 284 290 293 296 299 299 292 284 281 280 279 278 276 275 274 273 272 271 269 268 268 268 267 265 259 255 253 249 248 250 250 247 245 244 247 247
245 251 257 264 273 281 289 293 294 297 298 290 280 278 277 278 279 278 276 275 274 273 271 269 268 267 267 264 264 266 263 258 253 250 248 247 247 249 248 243 243 246
245 252 259 268 277 285 290 292 293 293 288 280 280 281 279 277 277 276 275 274 273 272 271 270 269 267 265 263 262 261 262 261 257 252 248 245 242 244 247 246 245 245
247 254 263 272 280 286 290 291 289 286 280 277 279 279 276 276 274 272 272 271 271 272 271 270 269 267 266 264 262 261 260 260 259 256 252 247 244 241 240 241 244 246
248 257 266 275 283 288 290 289 285 283 279 276 277 277 276 274 272 270 270 271 270 271 271 270 269 267 266 264 261 261 259 259 260 258 255 251 248 246 242 239 240 243
249 260 269 279 286 288 289 289 286 284 281 278 277 278 276 274 272 271 270 271 270 270 270 270 269 266 265 264 262 260 258 258 258 257 256 253 250 249 247 244 243 242
244 260 273 282 287 289 290 290 288 284 281 279 279 279 276 275 274 271 269 269 269 269 268 268 268 267 265 264 261 260 258 257 255 255 255 254 252 251 249 247 247 245
246 262 276 284 289 291 291 288 284 281 280 280 280 278 277 275 275 272 270 269 268 268 268 268 267 266 264 264 262 260 259 257 256 255 254 254 254 252 249 247 246 246
255 269 280 287 288 286 284 281 280 281 281 282 281 280 278 277 275 274 271 270 270 269 268 267 267 265 264 264 264 261 259 258 257 256 256 256 255 254 251 248 245 244
252 264 273 278 274 272 276 279 282 284 283 284 283 281 281 279 276 273 271 269 270 270 269 267 265 265 267 268 267 263 259 257 257 256 256 256 255 254 253 250 247 244
247 254 258 261 266 274 281 282 282 284 284 285 285 284 283 282 278 275 272 271 270 269 268 267 265 264 268 270 270 268 263 259 256 255 254 254 254 254 254 253 250 246
248 253 253 259 273 283 283 281 281 283 284 286 287 286 285 284 282 279 276 274 272 271 269 267 266 265 265 268 269 269 267 264 260 257 255 254 252 252 252 253 252 250
250 254 257 267 280 284 280 279 281 283 285 286 287 288 288 287 284 282 280 277 275 274 271 268 267 266 264 265 266 265 265 264 262 259 256 255 253 251 250 249 249 250
254 256 264 274 281 282 280 280 282 284 285 285 285 288 289 288 287 284 282 280 278 276 274 271 269 267 262 260 261 261 262 262 262 260 257 255 254 252 250 248 246 245
256 260 269 277 279 281 282 282 284 286 285 284 284 287 289 289 288 287 284 282 281 280 278 274 272 270 265 261 260 261 261 261 261 260 257 255 254 253 250 248 245 243
260 266 272 278 280 282 284 285 286 287 286 286 287 288 290 290 289 288 287 285 283 281 279 277 276 273 270 267 265 264 263 262 261 259 257 255 254 253 251 248 246 243
267 273 275 279 282 284 285 286 287 287 286 288 291 292 293 293 291 291 290 288 286 284 281 279 278 276 273 271 268 265 261 260 260 259 257 255 254 252 251 249 246 243
272 277 278 282 283 284 285 285 286 288 288 289 292 295 295 295 294 294 293 291 289 287 285 283 281 279 275 272 270 267 262 258 258 259 257 256 254 252 250 248 246 245
278 280 280 282 284 285 286 286 287 289 289 290 295 297 297 297 297 297 296 294 292 291 290 287 285 282 278 276 275 272 267 262 259 259 257 256 255 252 250 248 246 246
282 282 281 281 284 285 288 290 291 292 291 293 298 299 299 300 300 299 297 296 296 296 295 294 292 288 283 281 278 273 269 265 262 260 259 257 255 251 249 248 246 244